• In India
  • List of Countries
  • For 7 days
  • Water Temperature
  • Satellite Maps
  • Weather Map
  • Weather Widgets
  • user-avatar
    Login

    Hourly Weather Mjolby

    Today, 18 June, Monday

    Time Temperature Precipitation Wind Pressure Humidity
    00:00 +10°C° 0 mm 3 mps 747 mmHg 87%
    01:00 +9°C° 0 mm 3 mps 747 mmHg 88%
    02:00 +9°C° 0 mm 3 mps 747 mmHg 89%
    03:00 +9°C° 0 mm 3 mps 747 mmHg 91%
    04:00 +9°C° 0 mm 3 mps 747 mmHg 92%
    05:00 +11°C° 0 mm 4 mps 748 mmHg 85%
    06:00 +12°C° 0 mm 4 mps 748 mmHg 79%
    07:00 +13°C° 0 mm 5 mps 748 mmHg 73%
    08:00 +14°C° 0 mm 5 mps 748 mmHg 68%
    09:00 +15°C° 0 mm 5 mps 748 mmHg 64%
    10:00 +15°C° 0 mm 5 mps 748 mmHg 60%
    11:00 +17°C° 0 mm 5 mps 748 mmHg 54%
    12:00 +19°C° 0 mm 5 mps 748 mmHg 48%
    13:00 +21°C° 0 mm 5 mps 748 mmHg 41%
    14:00 +21°C° 0 mm 5 mps 747 mmHg 43%
    15:00 +21°C° 0 mm 5 mps 747 mmHg 44%
    16:00 +21°C° 0 mm 5 mps 747 mmHg 45%
    17:00 +20°C° 0 mm 5 mps 747 mmHg 52%
    18:00 +19°C° 0 mm 5 mps 747 mmHg 58%
    19:00 +18°C° 0 mm 4 mps 747 mmHg 65%
    20:00 +17°C° 0.1 mm 4 mps 746 mmHg 72%
    21:00 +15°C° 0.1 mm 4 mps 746 mmHg 79%
    22:00 +14°C° 0.1 mm 4 mps 746 mmHg 86%
    23:00 +14°C° 0.1 mm 4 mps 746 mmHg 88%

    Tomorrow, 19 June, Tuesday

    Time Temperature Precipitation Wind Pressure Humidity
    00:00 +14°C° 0.1 mm 4 mps 746 mmHg 89%
    01:00 +14°C° 0.1 mm 4 mps 746 mmHg 90%
    02:00 +13°C° 0.1 mm 5 mps 745 mmHg 88%
    03:00 +13°C° 0.1 mm 5 mps 745 mmHg 87%
    04:00 +12°C° 0.1 mm 5 mps 745 mmHg 86%
    05:00 +11°C° 0.1 mm 6 mps 745 mmHg 82%
    06:00 +13°C° 0.1 mm 6 mps 745 mmHg 78%
    07:00 +13°C° 0.1 mm 6 mps 745 mmHg 74%
    08:00 +13°C° 0.2 mm 6 mps 745 mmHg 77%
    09:00 +13°C° 0.2 mm 6 mps 745 mmHg 80%
    10:00 +13°C° 0.2 mm 6 mps 745 mmHg 83%
    11:00 +15°C° 0.1 mm 6 mps 745 mmHg 70%
    12:00 +17°C° 0.1 mm 7 mps 745 mmHg 58%
    13:00 +18°C° 0.1 mm 7 mps 745 mmHg 46%
    14:00 +18°C° 0 mm 7 mps 745 mmHg 42%
    15:00 +18°C° 0 mm 7 mps 746 mmHg 38%
    16:00 +20°C° 0 mm 7 mps 746 mmHg 34%
    17:00 +18°C° 0 mm 7 mps 746 mmHg 39%
    18:00 +17°C° 0 mm 7 mps 747 mmHg 44%
    19:00 +16°C° 0 mm 6 mps 747 mmHg 49%
    20:00 +14°C° 0 mm 6 mps 748 mmHg 54%
    21:00 +13°C° 0 mm 6 mps 748 mmHg 59%
    22:00 +12°C° 0 mm 5 mps 749 mmHg 64%
    23:00 +10°C° 0 mm 5 mps 749 mmHg 65%

    Day after tomorrow, 20 June, Wednesday

    Time Temperature Precipitation Wind Pressure Humidity
    00:00 +10°C° 0 mm 5 mps 749 mmHg 66%
    01:00 +10°C° 0 mm 5 mps 750 mmHg 67%
    02:00 +9°C° 0 mm 5 mps 750 mmHg 67%
    03:00 +9°C° 0 mm 5 mps 750 mmHg 68%
    04:00 +9°C° 0 mm 5 mps 750 mmHg 68%
    05:00 +10°C° 0 mm 5 mps 751 mmHg 63%
    06:00 +12°C° 0 mm 5 mps 751 mmHg 58%
    07:00 +13°C° 0 mm 6 mps 751 mmHg 53%
    08:00 +15°C° 0 mm 6 mps 751 mmHg 49%
    09:00 +16°C° 0 mm 6 mps 751 mmHg 46%
    10:00 +17°C° 0 mm 6 mps 751 mmHg 43%
    11:00 +17°C° 0 mm 6 mps 751 mmHg 46%
    12:00 +17°C° 0 mm 6 mps 750 mmHg 50%
    13:00 +17°C° 0 mm 5 mps 750 mmHg 53%
    14:00 +15°C° 0.3 mm 5 mps 750 mmHg 63%
    15:00 +14°C° 0.3 mm 4 mps 750 mmHg 73%
    16:00 +12°C° 0.3 mm 3 mps 749 mmHg 83%
    17:00 +12°C° 0.2 mm 3 mps 749 mmHg 87%
    18:00 +13°C° 0.2 mm 2 mps 748 mmHg 90%
    19:00 +13°C° 0.2 mm 2 mps 748 mmHg 94%
    20:00 +14°C° 0.2 mm 2 mps 748 mmHg 95%
    21:00 +14°C° 0.2 mm 2 mps 748 mmHg 96%
    22:00 +14°C° 0.2 mm 2 mps 747 mmHg 97%
    23:00 +14°C° 0.2 mm 2 mps 747 mmHg 97%

    21 June, Thursday

    Time Temperature Precipitation Wind Pressure Humidity
    00:00 +15°C° 0.2 mm 2 mps 747 mmHg 97%
    01:00 +15°C° 0.2 mm 2 mps 747 mmHg 97%
    02:00 +15°C° 0.2 mm 2 mps 746 mmHg 97%
    03:00 +14°C° 0.2 mm 2 mps 746 mmHg 97%
    04:00 +14°C° 0.2 mm 2 mps 746 mmHg 97%
    05:00 +14°C° 0.8 mm 2 mps 745 mmHg 97%
    06:00 +14°C° 0.8 mm 2 mps 745 mmHg 97%
    07:00 +15°C° 0.8 mm 1 mps 744 mmHg 97%
    08:00 +15°C° 0.7 mm 2 mps 744 mmHg 96%
    09:00 +15°C° 0.7 mm 2 mps 744 mmHg 96%
    10:00 +15°C° 0.7 mm 2 mps 743 mmHg 96%
    11:00 +15°C° 0.7 mm 2 mps 743 mmHg 94%
    12:00 +15°C° 0.7 mm 2 mps 743 mmHg 93%
    13:00 +15°C° 0.7 mm 2 mps 742 mmHg 92%
    14:00 +14°C° 0.2 mm 3 mps 742 mmHg 88%
    15:00 +14°C° 0.2 mm 3 mps 741 mmHg 84%
    16:00 +14°C° 0.2 mm 3 mps 741 mmHg 80%
    17:00 +14°C° 0 mm 3 mps 741 mmHg 75%
    18:00 +14°C° 0 mm 3 mps 740 mmHg 70%
    19:00 +14°C° 0 mm 3 mps 740 mmHg 65%
    20:00 +13°C° 0 mm 3 mps 739 mmHg 70%
    21:00 +11°C° 0 mm 3 mps 739 mmHg 74%
    22:00 +10°C° 0 mm 3 mps 739 mmHg 79%
    23:00 +9°C° 0 mm 3 mps 738 mmHg 82%

    22 June, Friday

    Time Temperature Precipitation Wind Pressure Humidity
    00:00 +8°C° 0 mm 3 mps 738 mmHg 85%
    01:00 +7°C° 0 mm 2 mps 737 mmHg 88%
    02:00 +7°C° 0 mm 2 mps 737 mmHg 90%
    03:00 +7°C° 0 mm 2 mps 737 mmHg 91%
    04:00 +7°C° 0 mm 2 mps 737 mmHg 93%
    05:00 +7°C° 0.1 mm 3 mps 737 mmHg 91%
    06:00 +8°C° 0.1 mm 3 mps 738 mmHg 89%
    07:00 +8°C° 0.1 mm 4 mps 738 mmHg 87%
    08:00 +8°C° 0.7 mm 4 mps 738 mmHg 89%
    09:00 +7°C° 0.7 mm 5 mps 739 mmHg 91%
    10:00 +7°C° 0.7 mm 5 mps 739 mmHg 93%
    11:00 +7°C° 0.9 mm 4 mps 739 mmHg 92%
    12:00 +7°C° 0.9 mm 4 mps 740 mmHg 91%
    13:00 +8°C° 0.9 mm 4 mps 740 mmHg 90%
    14:00 +10°C° 0.3 mm 4 mps 740 mmHg 83%
    15:00 +12°C° 0.3 mm 4 mps 740 mmHg 77%
    16:00 +13°C° 0.3 mm 4 mps 740 mmHg 71%
    17:00 +13°C° 0.2 mm 4 mps 740 mmHg 71%
    18:00 +13°C° 0.2 mm 4 mps 740 mmHg 70%
    19:00 +13°C° 0.2 mm 4 mps 740 mmHg 70%
    20:00 +12°C° 0 mm 4 mps 740 mmHg 73%
    21:00 +11°C° 0 mm 4 mps 740 mmHg 75%
    22:00 +10°C° 0 mm 4 mps 740 mmHg 78%
    23:00 +8°C° 0 mm 4 mps 740 mmHg 80%

    23 June, Saturday

    Time Temperature Precipitation Wind Pressure Humidity
    00:00 +9°C° 0 mm 3 mps 740 mmHg 81%
    01:00 +9°C° 0 mm 3 mps 740 mmHg 83%
    02:00 +8°C° 0 mm 4 mps 740 mmHg 82%
    03:00 +8°C° 0 mm 4 mps 740 mmHg 82%
    04:00 +8°C° 0 mm 4 mps 740 mmHg 81%
    05:00 +10°C° 0 mm 4 mps 741 mmHg 75%
    06:00 +11°C° 0 mm 4 mps 741 mmHg 69%
    07:00 +12°C° 0 mm 5 mps 741 mmHg 62%
    08:00 +14°C° 0 mm 5 mps 741 mmHg 58%
    09:00 +15°C° 0 mm 5 mps 741 mmHg 53%
    10:00 +17°C° 0 mm 5 mps 742 mmHg 48%
    11:00 +17°C° 0 mm 5 mps 742 mmHg 47%
    12:00 +17°C° 0 mm 5 mps 742 mmHg 47%
    13:00 +17°C° 0 mm 5 mps 742 mmHg 46%
    14:00 +17°C° 0 mm 5 mps 743 mmHg 45%
    15:00 +17°C° 0 mm 5 mps 743 mmHg 44%
    16:00 +19°C° 0 mm 4 mps 743 mmHg 43%
    17:00 +18°C° 0 mm 4 mps 743 mmHg 45%
    18:00 +18°C° 0 mm 4 mps 743 mmHg 46%
    19:00 +17°C° 0 mm 3 mps 744 mmHg 48%
    20:00 +16°C° 0 mm 3 mps 744 mmHg 53%
    21:00 +13°C° 0 mm 3 mps 745 mmHg 57%
    22:00 +11°C° 0 mm 3 mps 745 mmHg 61%
    23:00 +11°C° 0 mm 3 mps 745 mmHg 62%
    Show more